GW7187 Weather Reports


time (UTC)temp
C
wind
direction
speed
KPH
gust
KPH
rain 1hr
cm
rain 24hr
cm
rain mn
cm
humidity
%
barometer
mb
20260504110248 12 226 8.0 9.7 0.20 0.00 1.37 84 1010.8
20260504100248 12 162 12.9 12.9 0.23 0.00 1.17 82 1011.2
20260504081747 12 306 12.9 12.9 0.08 0.00 0.64 77 1011.9
20260504081248 13 299 14.5 17.7 0.08 0.00 0.58 75 1011.9
20260504080755 13 222 3.2 3.2 0.08 0.00 0.56 77 1011.9
20260504080247 13 219 6.4 8.0 0.08 0.00 0.53 77 1011.5
20260504070247 13 168 12.9 14.5 0.08 0.00 0.46 73 1011.5
20260504060248 13 287 4.8 4.8 0.05 0.00 0.38 72 1011.2
20260504050747 12 96 0.0 0.0 0.13 0.00 0.38 71 1010.8
20260504050247 12 108 8.0 8.0 0.10 0.00 0.38 76 1010.8
20260504045747 12 66 12.9 12.9 0.13 0.00 0.33 76 1011.2
20260504045248 12 150 4.8 4.8 0.13 0.00 0.33 75 1011.2
20260504044748 12 197 4.8 4.8 0.13 0.00 0.33 77 1011.2
20260504044250 12 208 14.5 14.5 0.13 0.00 0.33 72 1011.5
20260504043747 12 150 4.8 4.8 0.10 0.00 0.33 74 1011.2
20260504043247 12 234 6.4 8.0 0.08 0.00 0.30 74 1011.2
20260504042304 13 246 12.9 12.9 0.03 0.00 0.25 73 1010.8
20260504041749 14 254 11.3 11.3 0.03 0.00 0.23 69 1010.8
20260504041247 13 232 8.0 8.0 0.03 0.00 0.23 67 1010.2
20260504040748 13 174 6.4 6.4 0.03 0.00 0.23 71 1010.2
20260504040247 13 158 6.4 6.4 0.03 0.00 0.23 70 1009.5
20260504035747 13 180 3.2 3.2 0.00 0.00 0.23 71 1009.8
20260504035247 13 258 22.5 24.1 0.00 0.00 0.20 69 1009.8
20260504034748 14 180 14.5 16.1 0.00 0.00 0.20 68 1010.2
20260504034247 15 208 14.5 16.1 0.00 0.00 0.20 62 1010.2
20260504033748 15 176 27.4 30.6 0.00 0.00 0.20 60 1010.2
20260504033248 15 217 20.9 25.7 0.00 0.00 0.20 63 1010.2
20260504032747 15 246 24.1 27.4 0.00 0.00 0.20 63 1010.2
20260504032248 15 246 24.1 27.4 0.00 0.00 0.20 63 1010.2
20260504031747 14 246 16.1 19.3 0.00 0.00 0.20 63 1009.8
20260504031247 14 246 16.1 19.3 0.00 0.00 0.20 63 1009.8
20260504030748 14 246 43.5 57.9 0.00 0.00 0.20 64 1009.8
20260504030248 14 246 43.5 57.9 0.00 0.00 0.20 64 1009.5
20260504025747 14 226 17.7 22.5 0.00 0.00 0.20 65 1009.8
20260504025248 14 204 12.9 12.9 0.00 0.00 0.20 63 1009.5
20260504024748 14 266 29.0 33.8 0.00 0.00 0.20 62 1009.5
20260504024247 14 254 33.8 41.8 0.00 0.00 0.20 61 1009.5
20260504023747 14 270 22.5 30.6 0.00 0.00 0.20 62 1009.5
20260504023247 14 244 30.6 32.2 0.03 0.00 0.20 60 1009.5
20260504022747 14 246 22.5 24.1 0.03 0.00 0.20 61 1009.8
20260504022248 13 252 22.5 29.0 0.03 0.00 0.20 62 1009.8
20260504021747 13 96 3.2 3.2 0.03 0.00 0.20 64 1009.8
20260504021247 13 186 11.3 11.3 0.03 0.00 0.20 64 1009.8
20260504020748 13 78 1.6 1.6 0.03 0.00 0.20 69 1009.8
20260504020247 13 138 11.3 11.3 0.03 0.00 0.20 67 1009.8
20260504015748 13 42 8.0 9.7 0.03 0.00 0.20 73 1009.5
20260504015248 13 48 0.0 0.0 0.03 0.00 0.20 72 1010.2
20260504014749 13 203 8.0 8.0 0.08 0.00 0.20 71 1010.2
20260504014248 13 188 3.2 3.2 0.13 0.00 0.20 72 1010.5
20260504013748 13 266 0.0 0.0 0.15 0.00 0.20 73 1010.2
20260504013248 13 252 4.8 4.8 0.13 0.00 0.20 72 1010.2
20260504012748 13 216 9.7 11.3 0.13 0.00 0.18 70 1010.2
20260504012248 13 182 4.8 4.8 0.13 0.00 0.18 70 1010.2
20260504011747 13 160 3.2 3.2 0.13 0.00 0.18 67 1010.2
20260504011249 13 220 8.0 8.0 0.13 0.00 0.18 66 1010.2
20260504010747 13 248 4.8 4.8 0.13 0.00 0.18 69 1010.2
20260504010247 13 246 6.4 6.4 0.13 0.00 0.18 71 1010.2
20260504005748 13 174 4.8 4.8 0.13 0.00 0.18 74 1010.2
20260504005247 13 207 3.2 3.2 0.13 0.00 0.18 71 1010.2
20260504004747 13 246 1.6 1.6 0.08 0.00 0.18 73 1010.2
20260504004247 13 282 14.5 16.1 0.03 0.00 0.15 70 1010.8
20260504003748 15 282 16.1 17.7 0.00 0.00 0.05 62 1010.2
20260504003247 15 213 4.8 4.8 0.00 0.00 0.05 61 1010.2
20260504002748 15 219 8.0 8.0 0.00 0.00 0.05 61 1009.8
20260504002249 15 235 8.0 11.3 0.00 0.00 0.05 61 1010.2
20260504001747 15 142 4.8 4.8 0.00 0.00 0.05 63 1010.2
20260504001247 15 207 8.0 8.0 0.00 0.00 0.05 62 1010.2
20260504000747 15 182 0.0 0.0 0.00 0.00 0.05 62 1010.2
20260504000248 15 234 8.0 9.7 0.00 0.00 0.05 60 1010.2
20260503235747 15 258 8.0 8.0 0.00 0.00 0.05 62 1010.2
20260503235247 15 126 4.8 4.8 0.00 0.00 0.05 62 1010.2
20260503234747 15 240 6.4 8.0 0.00 0.00 0.05 61 1010.5
20260503234248 15 179 8.0 8.0 0.00 0.00 0.05 61 1010.5
20260503233748 15 132 4.8 4.8 0.00 0.00 0.05 62 1010.5
20260503233247 15 182 4.8 4.8 0.00 0.00 0.05 62 1010.2
20260503232747 15 258 3.2 3.2 0.00 0.00 0.05 63 1010.2
20260503232247 15 183 6.4 6.4 0.00 0.00 0.05 65 1010.5
20260503231747 15 306 0.0 0.0 0.00 0.00 0.05 65 1010.2
20260503231248 15 306 6.4 6.4 0.00 0.00 0.05 62 1010.5
20260503230747 15 292 6.4 6.4 0.00 0.00 0.05 63 1010.2
20260503225801 15 138 0.0 0.0 0.00 0.00 0.05 64 1010.5
20260503225247 15 312 9.7 9.7 0.03 0.00 0.05 60 1010.5
20260503224748 15 278 6.4 8.0 0.05 0.00 0.05 62 1010.2
20260503224247 15 210 8.0 8.0 0.05 0.00 0.05 62 1010.5
20260503223747 15 228 22.5 25.7 0.05 0.00 0.05 62 1010.5
20260503223248 15 207 17.7 22.5 0.05 0.00 0.05 62 1010.8
20260503222749 15 198 14.5 17.7 0.05 0.00 0.05 63 1010.8
20260503222247 15 211 17.7 17.7 0.05 0.00 0.05 65 1010.5
20260503221747 15 220 12.9 12.9 0.05 0.00 0.05 68 1010.8
20260503221249 15 210 8.0 11.3 0.05 0.00 0.05 66 1010.5
20260503220747 15 249 17.7 19.3 0.05 0.00 0.05 68 1010.5
20260503220247 15 234 16.1 17.7 0.05 0.00 0.05 68 1010.2
20260503215747 15 207 16.1 17.7 0.05 0.00 0.05 67 1010.2
20260503215247 15 192 8.0 8.0 0.03 0.00 0.05 69 1010.2
20260503214747 15 241 11.3 11.3 0.00 0.00 0.05 68 1010.2
20260503214247 15 228 17.7 20.9 0.00 0.00 0.00 63 1010.2
20260503213747 15 216 12.9 12.9 0.00 0.00 0.00 62 1010.2
20260503213248 15 230 11.3 12.9 0.00 0.00 0.00 62 1010.2
20260503212747 15 264 12.9 14.5 0.00 0.00 0.00 63 1010.5
20260503212248 15 246 8.0 9.7 0.00 0.00 0.00 62 1010.5
20260503211748 15 192 11.3 12.9 0.00 0.00 0.00 62 1010.5
20260503211247 15 181 11.3 12.9 0.00 0.00 0.00 62 1010.5
20260503210748 16 120 12.9 14.5 0.00 0.00 0.00 63 1010.8
20260503210247 16 211 30.6 35.4 0.00 0.00 0.00 61 1010.5
20260503205748 16 227 16.1 17.7 0.00 0.00 0.48 63 1010.5
20260503205247 15 246 19.3 24.1 0.00 0.00 0.48 63 1010.2
20260503204747 16 287 8.0 11.3 0.00 0.00 0.48 62 1010.2
20260503204248 16 234 17.7 17.7 0.00 0.00 0.48 63 1010.2
20260503203748 16 211 12.9 12.9 0.00 0.00 0.48 61 1010.2
20260503203248 16 242 19.3 22.5 0.00 0.00 0.48 59 1010.2
20260503202747 16 142 1.6 1.6 0.03 0.00 0.48 64 1010.2
20260503202248 16 238 12.9 14.5 0.03 0.00 0.48 64 1010.2
20260503201747 16 276 24.1 29.0 0.03 0.00 0.48 63 1010.2
20260503201247 16 239 14.5 14.5 0.03 0.00 0.48 62 1010.2
20260503200747 16 246 14.5 17.7 0.03 0.00 0.48 59 1010.2
20260503200248 16 270 9.7 11.3 0.03 0.00 0.48 62 1009.8
20260503195747 16 282 14.5 17.7 0.03 0.00 0.48 64 1009.8
20260503195248 16 342 4.8 6.4 0.03 0.00 0.48 62 1009.8
20260503194747 16 228 12.9 12.9 0.03 0.00 0.48 61 1009.8
20260503194247 16 40 4.8 4.8 0.03 0.00 0.48 57 1010.2
20260503193747 16 258 17.7 19.3 0.03 0.00 0.48 62 1009.8
20260503193248 16 318 14.5 14.5 0.03 0.00 0.48 66 1009.8
20260503192747 16 282 16.1 17.7 0.03 0.00 0.48 67 1009.5
20260503192247 16 264 12.9 12.9 0.10 0.00 0.46 65 1009.5
20260503191747 16 258 19.3 27.4 0.15 0.00 0.46 63 1009.1
20260503191248 16 288 14.5 17.7 0.18 0.00 0.46 61 1009.8
20260503190748 16 203 6.4 6.4 0.18 0.00 0.46 61 1009.8
20260503190248 16 318 19.3 22.5 0.18 0.00 0.46 63 1009.5
20260503185748 16 272 6.4 8.0 0.18 0.00 0.46 64 1009.5
20260503185247 16 259 17.7 17.7 0.18 0.00 0.46 63 1009.8
20260503184748 16 286 9.7 11.3 0.18 0.00 0.46 70 1009.8
20260503184248 16 252 11.3 12.9 0.20 0.00 0.46 68 1009.8
20260503183747 17 36 1.6 1.6 0.23 0.00 0.46 67 1009.1
20260503183249 16 282 6.4 6.4 0.25 0.00 0.46 70 1009.5
20260503182748 16 312 17.7 20.9 0.23 0.00 0.46 69 1009.5
20260503182249 16 215 3.2 3.2 0.15 0.00 0.43 76 1009.5
20260503181748 17 276 3.2 3.2 0.10 0.00 0.33 72 1009.1
20260503181247 16 330 8.0 11.3 0.10 0.00 0.28 72 1009.1
20260503180747 16 270 9.7 11.3 0.10 0.00 0.28 71 1008.8
20260503180248 16 354 16.1 19.3 0.10 0.00 0.28 74 1008.8
20260503175749 16 310 6.4 6.4 0.10 0.00 0.28 74 1008.5
20260503175247 16 318 8.0 9.7 0.10 0.00 0.28 75 1008.5
20260503174747 16 288 3.2 3.2 0.08 0.00 0.28 75 1008.5
20260503174247 16 271 14.5 17.7 0.05 0.00 0.28 73 1008.1
20260503173747 16 282 37.0 43.5 0.03 0.00 0.23 77 1007.5
20260503173248 16 306 14.5 16.1 0.00 0.00 0.20 78 1007.8
20260503172747 16 312 8.0 8.0 0.00 0.00 0.18 75 1007.5
20260503172248 17 282 6.4 6.4 0.00 0.00 0.18 74 1007.5
20260503171747 17 294 3.2 3.2 0.00 0.00 0.18 72 1007.1
20260503171248 17 355 19.3 20.9 0.00 0.00 0.18 69 1007.5
20260503170748 17 212 8.0 11.3 0.00 0.00 0.18 68 1007.8
20260503170247 17 255 6.4 8.0 0.00 0.00 0.18 65 1007.5
20260503150748 17 228 27.4 32.2 0.00 0.00 0.10 69 1007.1
20260503150249 17 242 14.5 14.5 0.00 0.00 0.10 69 1007.1
20260503140251 17 276 40.2 43.5 0.08 0.00 0.10 72 1006.4
20260503131247 17 288 17.7 19.3 0.03 0.00 0.08 75 1005.8
20260503130747 18 276 30.6 33.8 0.00 0.00 0.03 72 1005.8
20260503130248 19 276 37.0 43.5 0.00 0.00 0.03 71 1005.4